Location: Quaker Farms
(41.4276°N, 73.1557°W)
Time: 14:51:39
(UTC+00:00)

Explorer 7 - All Passes

Search period start: 22 June 2021 00:00
Search period end: 02 July 2021 00:00
Orbit: 484 x 677 km, 50.3° (Epoch: 21 June)

Date Brightness Start Highest point End Pass type
(mag) Time Alt. Az. Time Alt. Az. Time Alt. Az.
22 Jun - 01:30:30 10° WSW 01:35:22 65° NNW 01:40:12 10° NE visible
22 Jun - 03:12:18 10° WNW 03:16:36 30° N 03:20:48 10° NE visible
22 Jun - 04:53:52 10° NW 04:58:10 31° NNE 05:02:17 10° ENE visible
22 Jun - 06:34:33 10° NW 06:39:16 81° NNE 06:43:40 10° ESE visible
22 Jun - 08:16:05 10° W 08:19:19 19° SW 08:22:24 10° S visible
22 Jun - 23:54:31 10° SSW 23:59:10 46° SE 00:03:51 10° ENE daylight
23 Jun - 01:35:04 10° W 01:39:49 48° NNW 01:44:31 10° NE visible
23 Jun - 03:17:00 10° WNW 03:21:13 28° N 03:25:19 10° ENE visible
23 Jun - 04:58:16 10° NW 05:02:44 37° NNE 05:06:59 10° E visible
23 Jun - 06:38:56 10° WNW 06:43:35 69° SW 06:47:58 10° SE visible
23 Jun - 08:21:46 10° WSW 08:23:21 12° SW 08:24:54 10° SSW visible
23 Jun - 22:21:11 10° SSE 22:23:32 14° SE 22:25:55 10° E daylight
23 Jun - 23:58:36 10° SW 00:03:26 70° SE 00:08:19 10° ENE daylight
24 Jun - 01:39:44 10° W 01:44:19 39° NNW 01:48:52 10° NE visible
24 Jun - 03:21:38 10° WNW 03:25:50 28° N 03:29:56 10° ENE visible
24 Jun - 05:02:37 10° NW 05:07:15 46° NNE 05:11:39 10° E visible
24 Jun - 06:43:24 10° WNW 06:47:50 44° SW 06:52:02 10° SSE visible
24 Jun - 22:23:57 10° S 22:27:36 22° SE 22:31:18 10° E daylight
25 Jun - 00:02:53 10° WSW 00:07:46 83° NNW 00:12:41 10° ENE daylight
25 Jun - 01:44:26 10° WNW 01:48:52 33° NNW 01:53:15 10° NE visible
25 Jun - 03:26:10 10° NW 03:30:27 30° N 03:34:36 10° ENE visible
25 Jun - 05:06:57 10° NW 05:11:43 63° NNE 05:16:13 10° ESE visible
25 Jun - 06:48:01 10° WNW 06:52:01 28° SW 06:55:48 10° SSE visible
25 Jun - 22:27:26 10° SSW 22:31:44 33° SE 22:36:07 10° ENE daylight
26 Jun - 00:07:21 10° WSW 00:12:10 60° NNW 00:17:01 10° NE daylight
26 Jun - 01:49:09 10° WNW 01:53:28 30° N 01:57:43 10° NE visible
26 Jun - 03:30:38 10° NW 03:35:02 33° NNE 03:39:19 10° ENE visible
26 Jun - 05:11:17 10° WNW 05:16:06 88° NE 05:20:39 10° ESE visible
26 Jun - 06:52:58 10° W 06:56:07 18° SW 06:59:08 10° S visible
26 Jun - 22:31:17 10° SW 22:35:56 51° SE 22:40:41 10° ENE daylight
27 Jun - 00:11:56 10° W 00:16:38 46° NNW 00:21:21 10° NE daylight
27 Jun - 01:53:50 10° WNW 01:58:05 28° N 02:02:16 10° ENE visible
27 Jun - 03:35:01 10° NW 03:39:35 39° NNE 03:44:01 10° E visible
27 Jun - 05:15:41 10° WNW 05:20:25 63° SW 05:24:54 10° SE visible
27 Jun - 06:59:01 10° WSW 07:00:09 11° SW 07:01:15 10° SW visible
27 Jun - 20:57:36 10° SSE 21:00:17 15° SE 21:02:59 10° E daylight
27 Jun - 22:35:24 10° SW 22:40:13 76° SE 22:45:07 10° ENE daylight
28 Jun - 00:16:37 10° W 00:21:09 37° NNW 00:25:42 10° NE daylight
28 Jun - 01:58:26 10° WNW 02:02:42 29° N 02:06:53 10° ENE visible
28 Jun - 03:39:21 10° NW 03:44:06 50° NNE 03:48:39 10° E visible
28 Jun - 05:20:10 10° WNW 05:24:39 41° SW 05:28:54 10° SSE visible
28 Jun - 21:00:35 10° S 21:04:21 24° SE 21:08:12 10° E daylight
28 Jun - 22:39:44 10° WSW 22:44:33 76° NNW 22:49:29 10° NE daylight
29 Jun - 00:21:20 10° WNW 00:25:43 32° NNW 00:30:07 10° NE daylight
29 Jun - 02:02:57 10° NW 02:07:18 31° N 02:11:34 10° ENE visible
29 Jun - 03:43:41 10° NW 03:48:32 68° NNE 03:53:11 10° ESE visible
29 Jun - 05:24:50 10° WNW 05:28:48 26° SW 05:32:36 10° S visible
29 Jun - 21:04:10 10° SSW 21:08:29 36° SE 21:12:57 10° ENE daylight
29 Jun - 22:44:14 10° WSW 22:48:58 56° NNW 22:53:49 10° NE daylight
30 Jun - 00:26:02 10° WNW 00:30:19 29° N 00:34:36 10° NE daylight
30 Jun - 02:07:23 10° NW 02:11:53 35° NNE 02:16:17 10° E visible
30 Jun - 03:48:01 10° WNW 03:52:54 85° SW 03:57:35 10° SE visible
30 Jun - 05:29:52 10° W 05:32:53 17° SW 05:35:48 10° SSW visible
30 Jun - 21:08:05 10° SW 21:12:41 56° SE 21:17:28 10° ENE daylight
30 Jun - 22:48:50 10° W 22:53:27 43° NNW 22:58:09 10° NE daylight
01 Jul - 00:30:41 10° WNW 00:34:56 28° N 00:39:10 10° ENE daylight
01 Jul - 02:11:45 10° NW 02:16:25 42° NNE 02:20:58 10° E visible
01 Jul - 03:52:26 10° WNW 03:57:12 58° SW 04:01:46 10° SE visible
01 Jul - 19:34:08 10° SSE 19:37:00 16° SE 19:39:58 10° E daylight
01 Jul - 21:12:15 10° SW 21:16:59 83° SE 21:21:53 10° ENE daylight
01 Jul - 22:53:31 10° W 22:57:59 36° NNW 23:02:30 10° NE daylight
